Terminal Aerodrome Forecast
Issued by NWS

Home | Current Version | Previous Version | Text Only | Print | Product List | Glossary On
Versions: 1 2 3 4 5 6 7 8 9 10 11 12 13
807
FTUS46 KPDT 031720
TAFYKM
TAF
KYKM 031720Z 0318/0418 VRB04KT P6SM SCT120 BKN200
     FM032000 15005KT P6SM BKN100 BKN200
     FM040300 30007KT P6SM VCSH OVC090
     FM041500 VRB05KT P6SM VCSH OVC080=

USA.gov is the U.S. government's official web portal to all federal, state and local government web resources and services.